Location: D�nning
(49.2479°N, 12.8491°E)
Time: 04:00:04
(UTC+00:00)

Cosmos 2150 Rocket - Pass Details

Date: 18 September 2020
Orbit: 749 x 808 km, 74.0° (Epoch: 29 October)

Event Time Altitude Azimuth Distance (km) Brightness Sun altitude
Rises 18:46:16 0° 185° (S) 3,260 7.1 -15.4°
Reaches altitude 10° 18:48:41 10° 180° (S) 2,345 6.3 -15.8°
Maximum altitude 18:53:50 51° 106° (ESE) 1,002 4.2 -16.6°
Drops below altitude 10° 18:59:05 10° 32° (NNE) 2,392 6.5 -17.4°
Sets 19:01:34 0° 27° (NNE) 3,332 7.3 -17.7°
